Powrót do katalogu

STARLINK-1762

AktywnyŁącznośćVLEO
NORAD 46342·PAYLOAD·🇺🇸 United States

Wystrzelony Sep 3, 2020 z Cape Canaveral Space Force Station

Loading…

Następne Przeloty (najbliższe 24 godziny)

TLE

ŚwieżeSource: CelesTrak SupGP

Epoka: Sep 15, 2026, 01:23 UTC

1 46342C 20062U   26258.05812500  .00034934  00000+0  65578-3 0  2587
2 46342  53.1499 200.0274 0004858  97.2774  63.4979 15.47989810    19

Śledź STARLINK-1762 w czasie rzeczywistym z AllMySat

Download on the App Store